Capo Bellavista, Italy

7:04 AM CEST on July 28, 2017 (GMT +0200)
Capo Bellavista

Weather History for LIEB - October, 2011

Change the Weather History Date:

Saturday, October 1, 2011

  Actual Average Record
Temperature  
Mean Temperature 71 °F -  
Max Temperature 78 °F 71 °F - ()
Min Temperature 64 °F 60 °F - ()
Cooling Degree Days 6    
Growing Degree Days 21 (Base 50)    
Moisture  
Dew Point 61 °F    
Average Humidity 72    
Maximum Humidity 83    
Minimum Humidity 56    
Precipitation  
Precipitation 0.00 in 0.09 in - ()
Sea Level Pressure  
Sea Level Pressure 30.20 in    
Wind  
Wind Speed 8 mph ()    
Max Wind Speed 15 mph    
Max Gust Speed -    
Visibility 8.1 miles    
Events      
T = Trace of Precipitation, MM = Missing Value Source: Averaged Metar Reports

Daily Weather History Graph

Daily Weather History Graph

Search for Another Location

Airport or City:

Trip Planner

Search our weather history database for the weather conditions in past years. The results will help you decide how hot, cold, wet, or windy it might be!

Date:

Astronomy

Oct. 01, 2011 Rise Set
Actual Time 7:16 AM CEST 7:04 PM CEST
Civil Twilight 6:49 AM CEST 7:31 PM CEST
Nautical Twilight 6:18 AM CEST 8:02 PM CEST
Astronomical Twilight 5:46 AM CEST 8:34 PM CEST
Moon 12:04 PM CEST (10/1) 9:46 PM CEST (10/1)
Length of Visible Light 12h 41m
Length of Day
11h 47m
Waxing Crescent, 21% of the Moon is Illuminated
Oct 1
Waxing Crescent
Oct 4
First Quarter
Oct 12
Full
Oct 20
Last Quarter
Oct 26
New

Hourly Weather History & Observations

Time (CEST) Temp. Dew Point Humidity Pressure Visibility Wind Dir Wind Speed Gust Speed Precip Events Conditions
12:55 AM 68.0 °F 57.2 °F 68% 30.21 in - WNW 6.9 mph - N/A   Clear
2:00 AM 66 °F 59 °F 72% 30.21 in 12 mi NNW 10.4 mph - -  
2:55 AM 66.2 °F 53.6 °F 64% 30.21 in - North 11.5 mph - N/A   Clear
3:55 AM 66.2 °F 51.8 °F 60% 30.21 in - North 10.4 mph - N/A   Clear
4:55 AM 66.2 °F 59.0 °F 78% 30.18 in - NNE 11.5 mph - N/A   Clear
8:00 AM 64 °F 52 °F 56% 30.20 in 12 mi NW 15.0 mph - -  
9:55 AM 66.2 °F 51.8 °F 60% 30.21 in - NNW 6.9 mph - N/A   Clear
10:55 AM 75.2 °F 64.4 °F 69% 30.21 in - NNE 8.1 mph - N/A   Clear
11:55 AM 78.8 °F 68.0 °F 69% 30.24 in - ENE 11.5 mph - N/A   Clear
1:55 PM 77.0 °F 66.2 °F 69% 30.21 in - East 10.4 mph - N/A   Clear
2:00 PM 77 °F 66 °F 62% 30.21 in 6 mi East 10.4 mph - -   Scattered Clouds
3:55 PM 75.2 °F 68.0 °F 78% 30.18 in - East 11.5 mph - N/A   Clear
4:55 PM 73.4 °F 66.2 °F 78% 30.18 in - East 10.4 mph - N/A   Clear
5:55 PM 73.4 °F 66.2 °F 78% 30.18 in 6.2 mi ENE 8.1 mph - N/A   Partly Cloudy
6:55 PM 73.4 °F 66.2 °F 78% 30.18 in 6.2 mi East 9.2 mph - N/A   Partly Cloudy
8:00 PM 71 °F 65 °F 76% 30.19 in 6 mi ENE 6.9 mph - -  
8:55 PM 69.8 °F 64.4 °F 83% 30.18 in - North 5.8 mph - N/A   Clear
9:55 PM 69.8 °F 64.4 °F 83% 30.21 in - NW 6.9 mph - N/A   Clear
11:55 PM 66.2 °F 59.0 °F 78% 30.21 in - WNW 10.4 mph - N/A   Clear